Engelberg, Switzerland 16 day weather forecast

Slopes altitude range 1050 m - 3030m

Number of lifts: 25 Pistes: 82km

In some cases the lift and piste totals shown are for the ski domain (e.g. Three Valleys) rather than individual resort (e.g. Courchevel)

Overview

The 16 day weather forecast is fully updated 4 times every day.

    • Mon 22 APR 2019
    • Mon 22
    • 9C 21C
    • Tue 23 APR 2019
    • Tue 23
    • 10C 18C
    • Wed 24 APR 2019
    • Wed 24
    • 11C 19C
    • Thu 25 APR 2019
    • Thu 25
    • 10C 17C
    • Fri 26 APR 2019
    • Fri 26
    • 3C 5C
    • Sat 27 APR 2019
    • Sat 27
    • 4C 12C
    • Sun 28 APR 2019
    • Sun 28
    • 9C 16C
    • Mon 29 APR 2019
    • Mon 29
    • 11C 19C
    • Tue 30 APR 2019
    • Tue 30
    • -1C 4C
    • Wed 01 MAY 2019
    • Wed 01
    • -1C 4C
    • Thu 02 MAY 2019
    • Thu 02
    • -2C 7C
    • Fri 03 MAY 2019
    • Fri 03
    • 0C 13C
    • Sat 04 MAY 2019
    • Sat 04
    • 5C 15C
    • Sun 05 MAY 2019
    • Sun 05
    • 6C 14C
    • Mon 06 MAY 2019
    • Mon 06
    • 2C 9C
    • Tue 07 MAY 2019
    • Tue 07
    • -2C 2C

Date:

Time Type 0°C level Temp Chill Snow Cloud Speed Gust Dir Press
3:00 3161m 7°C 7_8 0cm 51% 8mph 11mph 1014mB
6:00 3169m 7°C 7_7 0cm 56% 7mph 11mph 1012mB
9:00 3189m 9°C 9_4 0cm 88% 4mph 7mph 1009mB
12:00 3173m 21°C 21_3 0cm 81% 3mph 7mph 1007mB
15:00 3164m 21°C 21_5 0cm 96% 5mph 8mph 1004mB
18:00 3192m 21°C 21_7 0cm 83% 7mph 9mph 1004mB
21:00 3203m 9°C 9_9 0cm 56% 9mph 15mph 1004mB
0:00 3128m 9°C 9_8 0cm 71% 8mph 12mph 1003mB
3:00 2860m 9°C 9_7 0cm 100% 7mph 11mph 1002mB
6:00 2726m 9°C 9_6 0cm 99% 6mph 9mph 1001mB
9:00 2664m 10°C 10_2 0cm 98% 2mph 4mph 999mB
12:00 2649m 18°C 18_1 0cm 99% 1mph 4mph 999mB
15:00 2758m 18°C 18_3 0cm 99% 3mph 6mph 999mB
18:00 2874m 18°C 18_6 0cm 98% 6mph 8mph 1000mB
21:00 2914m 9°C 9_8 0cm 98% 8mph 12mph 1003mB
0:00 2870m 9°C 9_7 0cm 98% 7mph 12mph 1004mB
3:00 2821m 8°C 8_7 0cm 20% 7mph 9mph 1005mB
6:00 2912m 8°C 8_7 0cm 35% 7mph 12mph 1006mB
9:00 3073m 11°C 11_8 0cm 89% 8mph 15mph 1006mB
12:00 2919m 19°C 19_11 0cm 93% 11mph 23mph 1006mB
15:00 2675m 19°C 19_5 0cm 41% 5mph 21mph 1007mB
18:00 2335m 19°C 19_3 0cm 69% 3mph 5mph 1011mB
21:00 2698m 6°C 6_5 0cm 23% 5mph 6mph 1014mB
0:00 3221m 6°C 6_8 0cm 27% 8mph 12mph 1014mB
3:00 3282m 7°C 7_8 0cm 58% 8mph 13mph 1014mB
6:00 3286m 7°C 7_8 0cm 36% 8mph 17mph 1014mB
9:00 3293m 10°C 10_9 0cm 5% 9mph 15mph 1014mB
12:00 3074m 17°C 17_9 0cm 38% 9mph 15mph 1013mB
15:00 3036m 17°C 17_9 0cm 98% 9mph 16mph 1012mB
18:00 2858m 17°C 17_5 0cm 93% 5mph 7mph 1013mB
21:00 2520m 8°C 8_4 0cm 94% 4mph 4mph 1015mB
0:00 2391m 5°C 5_1 0cm 93% 1mph 2mph 1016mB
3:00 2058m 4°C 4_3 0cm 12% 3mph 4mph 1016mB
6:00 1506m 3°C 3_5 0cm 42% 5mph 11mph 1017mB
9:00 1457m 3°C 3_2 0cm 100% 2mph 5mph 1020mB
12:00 1542m 5°C 5_1 0cm 100% 1mph 3mph 1020mB
15:00 1735m 6°C 6_2 0cm 100% 2mph 4mph 1021mB
18:00 1711m 7°C 7_2 0cm 100% 2mph 3mph 1023mB
21:00 1510m 2°C 2_3 0cm 85% 3mph 4mph 1026mB
0:00 1425m 1°C 1_3 0cm 60% 3mph 4mph 1027mB
3:00 1383m 1°C 1_4 0cm 29% 4mph 5mph 1028mB
6:00 1556m 0°C 0_4 0cm 16% 4mph 5mph 1029mB
9:00 1761m 4°C 4_3 0cm 1% 3mph 5mph 1027mB
12:00 2011m 12°C 12_5 0cm 7% 5mph 8mph 1026mB
15:00 2157m 13°C 13_5 0cm 10% 5mph 8mph 1025mB
18:00 2271m 13°C 13_1 0cm 20% 1mph 2mph 1026mB
21:00 2387m 5°C 5_6 0cm 32% 6mph 7mph 1029mB
0:00 2435m 5°C 5_5 0cm 37% 5mph 6mph 1028mB
3:00 2419m 5°C 5_5 0cm 29% 5mph 6mph 1027mB
6:00 2514m 5°C 5_4 0cm 35% 4mph 5mph 1026mB
9:00 2564m 9°C 9_4 0cm 22% 4mph 6mph 1025mB
12:00 2554m 16°C 16_5 0cm 12% 5mph 8mph 1023mB
15:00 2748m 16°C 16_5 0cm 1% 5mph 8mph 1022mB
18:00 2781m 16°C 16_1 0cm 1% 1mph 1mph 1022mB
21:00 2718m 8°C 8_4 0cm 11% 4mph 5mph 1023mB
0:00 2766m 7°C 7_5 0cm 14% 5mph 6mph 1022mB
3:00 2731m 7°C 7_6 0cm 54% 6mph 7mph 1019mB
6:00 2737m 7°C 7_5 0cm 56% 5mph 5mph 1017mB
9:00 2689m 11°C 11_6 0cm 43% 6mph 15mph 1014mB
12:00 2776m 19°C 19_11 0cm 49% 11mph 30mph 1011mB
15:00 2859m 14°C 14_9 0cm 93% 9mph 19mph 1009mB
18:00 2597m 14°C 14_5 0cm 96% 5mph 7mph 1009mB
21:00 2595m 5°C 5_4 0cm 100% 4mph 6mph 1009mB
0:00 2358m 4°C 4_6 0cm 100% 6mph 9mph 1009mB
3:00 1774m 2°C 2_8 0cm 100% 8mph 12mph 1008mB
6:00 1497m 0°C 0_7 5cm 100% 7mph 11mph 1009mB
9:00 1561m -1°C -1_7 1cm 90% 7mph 10mph 1010mB
12:00 1798m 4°C 4_7 1cm 80% 7mph 11mph 1009mB
15:00 1692m 4°C 4_7 2cm 100% 7mph 11mph 1009mB
18:00 1612m 4°C 4_4 3cm 92% 4mph 7mph 1011mB
21:00 1139m -2°C -2_4 1cm 60% 4mph 5mph 1015mB
0:00 864m -4°C -4_5 0cm 57% 5mph 6mph 1016mB
3:00 745m -5°C -5_4 0cm 12% 4mph 5mph 1016mB
6:00 1303m -5°C -5_3 0cm 6% 3mph 4mph 1015mB
9:00 1685m -1°C -1_5 0cm 6% 5mph 5mph 1014mB
12:00 1834m 4°C 4_6 1cm 38% 6mph 7mph 1012mB
15:00 1930m 5°C 5_6 1cm 75% 6mph 8mph 1011mB
18:00 1812m 5°C 5_3 2cm 70% 3mph 5mph 1012mB
21:00 1167m -3°C -3_5 0cm 27% 5mph 6mph 1015mB
0:00 1136m -3°C -3_5 0cm 31% 5mph 6mph 1014mB
Afternoon 0.0364583mm 0.125 2013m 7°C 7_7 1cm 97% 7mph 8mph 1010mB
Morning 0.0260417mm 0.3125 1620m -2°C -2_9 0cm 20% 9mph 9mph 1012mB
Afternoon 0.00520833mm 0.0625 2610m 13°C 13_6 0cm 37% 6mph 8mph 1007mB
Morning 0.0208333mm 0.25 2893m 5°C 5_14 0cm 85% 14mph 20mph 1008mB
Afternoon 0mm 0 2897m 15°C 15_11 0cm 94% 11mph 13mph 1002mB
Morning 0.0833333mm 0 3100m 7°C 7_13 0cm 77% 13mph 20mph 1003mB
Afternoon 0.380208mm 3.625 2917m 14°C 14_6 0cm 61% 6mph 9mph 999mB
Morning 2.875mm 5.75 2068m 3°C 3_6 0cm 100% 6mph 10mph 1000mB
Afternoon 0.416667mm 0 2178m 9°C 9_13 0cm 100% 13mph 17mph 1003mB
Morning 0.307292mm 0.6875 1451m 0°C 0_9 6cm 98% 9mph 13mph 1012mB
Afternoon 0.302083mm 0.25 1505m 2°C 2_10 2cm 98% 10mph 11mph 1015mB
Morning 0.015625mm 0.125 642m -6°C -6_3 0cm 45% 3mph 3mph 1023mB

16 day outlook at a glance

Forecast issued: 22/04/2019 08:53:25

Chat

Your comments and questions. In a resort? Let us know what it's like!


Characters left 250

For terms and conditions see Readers Comments on the Cookie and privacy policy page.